This is the latest recevied weather packets stored in our database for station/object vk4zu-13. If no packets are shown the sender has not sent any weather packets the latest 10 day(s).
| Time | Temp. | Humidity | Pressure | Rain* | Wind** | Luminosity | Snow |
|---|---|---|---|---|---|---|---|
| 1777613771 | 25.56° C | 64% | 1022 hPa | 0 mm | - | 294 W/m² | - |
| 1777613706 | 25.56° C | 65% | 1022 hPa | 0 mm | - | 304 W/m² | - |
| 1777613652 | 25.56° C | 63% | 1022 hPa | 0 mm | - | 246 W/m² | - |
| 1777613586 | 25.56° C | 65% | 1022 hPa | 0 mm | - | 264 W/m² | - |
| 1777613527 | 25.56° C | 65% | 1022 hPa | 0 mm | - | 223 W/m² | - |
| 1777613459 | 25.56° C | 64% | 1022 hPa | 0 mm | - | 462 W/m² | - |
| 1777613400 | 25° C | 64% | 1022 hPa | 0 mm | - | 462 W/m² | - |
| 1777613339 | 25° C | 65% | 1021.9 hPa | 0 mm | - | 439 W/m² | - |
| 1777613276 | 25° C | 63% | 1022 hPa | 0 mm | - | 431 W/m² | - |
| 1777613216 | 25° C | 63% | 1021.9 hPa | 0 mm | - | 418 W/m² | - |
| 1777613152 | 25° C | 64% | 1021.9 hPa | 0 mm | - | 418 W/m² | - |
| 1777613091 | 25° C | 64% | 1022 hPa | 0 mm | - | 418 W/m² | - |
| 1777613036 | 25.56° C | 63% | 1021.9 hPa | 0 mm | - | 329 W/m² | - |
| 1777612961 | 25.56° C | 63% | 1022 hPa | 0 mm | - | 380 W/m² | - |
| 1777612893 | 25.56° C | 62% | 1022 hPa | 0 mm | - | 406 W/m² | - |
| 1777612833 | 25.56° C | 62% | 1022.1 hPa | 0 mm | - | 390 W/m² | - |
| 1777612774 | 25.56° C | 63% | 1022.2 hPa | 0 mm | - | 318 W/m² | - |
| 1777612707 | 25.56° C | 65% | 1022.1 hPa | 0 mm | - | 339 W/m² | - |
| 1777612649 | 25° C | 62% | 1022.2 hPa | 0 mm | - | 385 W/m² | - |
| 1777612587 | 25.56° C | 62% | 1022.1 hPa | 0 mm | - | 396 W/m² | - |
| 1777612523 | 25.56° C | 63% | 1022.1 hPa | 0 mm | - | 396 W/m² | - |
| 1777612462 | 25.56° C | 63% | 1022.1 hPa | 0 mm | - | 401 W/m² | - |
| 1777612405 | 25° C | 65% | 1022.2 hPa | 0 mm | - | 415 W/m² | - |
| 1777612340 | 25° C | 65% | 1022.2 hPa | 0 mm | - | 418 W/m² | - |
| 1777612273 | 25° C | 63% | 1022.2 hPa | 0 mm | - | 418 W/m² | - |
* Rain latest hour (hover to see other rain measurements)
** Current wind speed in m/s (hover to see current wind gust speed)